Time,TemperatureF,DewpointF,PressureIn,WindDirection,WindDirectionDegrees,WindSpeedMPH,WindSpeedGustMPH,Humidity,HourlyPrecipIn,Conditions,Clouds,dailyrainin,SoftwareType,DateUTC
2013-07-13 00:02:00,55.0,-99.9,30.12,West,274,6.0,12.0,-999,-99.99,,,-99.99,,2013-07-13 07:02:00,
2013-07-13 00:11:00,55.0,-99.9,30.13,WNW,293,7.0,11.0,-999,-99.99,,,-99.99,,2013-07-13 07:11:00,
2013-07-13 00:22:00,55.0,-99.9,30.13,WNW,294,8.0,12.0,-999,-99.99,,,-99.99,,2013-07-13 07:22:00,
2013-07-13 00:33:00,55.0,-99.9,30.13,WNW,287,6.0,11.0,-999,-99.99,,,-99.99,,2013-07-13 07:33:00,
2013-07-13 00:44:00,55.0,-99.9,30.13,WNW,282,6.0,11.0,-999,-99.99,,,-99.99,,2013-07-13 07:44:00,
2013-07-13 00:53:00,55.0,-99.9,30.14,WNW,292,8.0,11.0,-999,-99.99,,,-99.99,,2013-07-13 07:53:00,
2013-07-13 01:02:00,55.0,-99.9,30.14,WNW,293,7.0,12.0,-999,-99.99,,,-99.99,,2013-07-13 08:02:00,
2013-07-13 01:33:00,54.0,-99.9,30.14,WSW,252,2.0,7.0,-999,-99.99,,,-99.99,,2013-07-13 08:33:00,
2013-07-13 01:43:00,54.0,-99.9,30.14,WSW,255,3.0,5.0,-999,-99.99,,,-99.99,,2013-07-13 08:43:00,
2013-07-13 01:52:00,54.0,-99.9,30.14,West,274,4.0,6.0,-999,-99.99,,,-99.99,,2013-07-13 08:52:00,
2013-07-13 02:02:00,54.0,-99.9,30.14,West,272,4.0,6.0,-999,-99.99,,,-99.99,,2013-07-13 09:02:00,
2013-07-13 02:11:00,54.0,-99.9,30.14,West,259,3.0,4.0,-999,-99.99,,,-99.99,,2013-07-13 09:11:00,
2013-07-13 02:33:00,54.0,-99.9,30.15,SSW,196,2.0,4.0,-999,-99.99,,,-99.99,,2013-07-13 09:33:00,
2013-07-13 02:43:00,53.0,-99.9,30.15,SW,216,5.0,6.0,-999,-99.99,,,-99.99,,2013-07-13 09:43:00,
2013-07-13 02:53:00,54.0,-99.9,30.15,SSW,212,7.0,8.0,-999,-99.99,,,-99.99,,2013-07-13 09:53:00,
2013-07-13 03:01:00,54.0,-99.9,30.15,SW,216,7.0,9.0,-999,-99.99,,,-99.99,,2013-07-13 10:01:00,
2013-07-13 03:32:00,54.0,-99.9,30.16,SSW,192,5.0,9.0,-999,-99.99,,,-99.99,,2013-07-13 10:32:00,
2013-07-13 03:43:00,53.0,-99.9,30.16,SSE,162,4.0,7.0,-999,-99.99,,,-99.99,,2013-07-13 10:43:00,
2013-07-13 03:52:00,52.0,-99.9,30.16,SE,143,3.0,6.0,-999,-99.99,,,-99.99,,2013-07-13 10:52:00,
2013-07-13 04:02:00,52.0,-99.9,30.17,SE,144,3.0,6.0,-999,-99.99,,,-99.99,,2013-07-13 11:02:00,
2013-07-13 04:11:00,51.0,-99.9,30.17,SSE,162,5.0,7.0,-999,-99.99,,,-99.99,,2013-07-13 11:11:00,
2013-07-13 04:43:00,51.0,-99.9,30.17,SSE,164,4.0,6.0,-999,-99.99,,,-99.99,,2013-07-13 11:43:00,
2013-07-13 04:52:00,51.0,-99.9,30.17,SSE,155,2.0,5.0,-999,-99.99,,,-99.99,,2013-07-13 11:52:00,
2013-07-13 05:02:00,51.0,-99.9,30.18,SSE,166,5.0,6.0,-999,-99.99,,,-99.99,,2013-07-13 12:02:00,
2013-07-13 05:32:00,51.0,-99.9,30.18,South,179,5.0,5.0,-999,-99.99,,,-99.99,,2013-07-13 12:32:00,
2013-07-13 05:43:00,51.0,-99.9,30.19,South,181,3.0,4.0,-999,-99.99,,,-99.99,,2013-07-13 12:43:00,
2013-07-13 06:12:00,51.0,-99.9,30.19,SSW,205,4.0,6.0,-999,-99.99,,,-99.99,,2013-07-13 13:12:00,
2013-07-13 06:22:00,51.0,-99.9,30.19,SSW,211,2.0,3.0,-999,-99.99,,,-99.99,,2013-07-13 13:22:00,
2013-07-13 06:43:00,51.0,-99.9,30.20,South,190,3.0,4.0,-999,-99.99,,,-99.99,,2013-07-13 13:43:00,
2013-07-13 06:53:00,51.0,-99.9,30.20,South,184,3.0,4.0,-999,-99.99,,,-99.99,,2013-07-13 13:53:00,
2013-07-13 07:02:00,51.0,-99.9,30.20,South,174,4.0,4.0,-999,-99.99,,,-99.99,,2013-07-13 14:02:00,
2013-07-13 07:53:00,52.0,-99.9,30.21,South,170,4.0,4.0,-999,-99.99,,,-99.99,,2013-07-13 14:53:00,
2013-07-13 08:02:00,53.0,-99.9,30.21,SSE,167,4.0,5.0,-999,-99.99,,,-99.99,,2013-07-13 15:02:00,
2013-07-13 08:12:00,53.0,-99.9,30.22,South,172,3.0,4.0,-999,-99.99,,,-99.99,,2013-07-13 15:12:00,
2013-07-13 09:02:00,56.0,-99.9,30.23,ENE,61,6.0,7.0,-999,-99.99,,,-99.99,,2013-07-13 16:02:00,
2013-07-13 09:33:00,56.0,-99.9,30.23,ENE,63,8.0,8.0,-999,-99.99,,,-99.99,,2013-07-13 16:33:00,
2013-07-13 09:43:00,57.0,-99.9,30.23,ENE,61,7.0,8.0,-999,-99.99,,,-99.99,,2013-07-13 16:43:00,
2013-07-13 09:53:00,56.0,-99.9,30.23,NE,55,6.0,7.0,-999,-99.99,,,-99.99,,2013-07-13 16:53:00,
2013-07-13 10:01:00,57.0,-99.9,30.23,ENE,62,6.0,7.0,-999,-99.99,,,-99.99,,2013-07-13 17:01:00,
2013-07-13 10:33:00,57.0,-99.9,30.23,NE,53,7.0,9.0,-999,-99.99,,,-99.99,,2013-07-13 17:33:00,
2013-07-13 10:43:00,58.0,-99.9,30.23,NE,50,6.0,7.0,-999,-99.99,,,-99.99,,2013-07-13 17:43:00,
2013-07-13 11:02:00,59.0,-99.9,30.23,NE,41,6.0,8.0,-999,-99.99,,,-99.99,,2013-07-13 18:02:00,
2013-07-13 11:32:00,60.0,-99.9,30.23,NE,35,8.0,9.0,-999,-99.99,,,-99.99,,2013-07-13 18:32:00,
2013-07-13 11:44:00,60.0,-99.9,30.23,NNE,33,8.0,10.0,-999,-99.99,,,-99.99,,2013-07-13 18:44:00,
2013-07-13 12:02:00,60.0,-99.9,30.23,NE,36,9.0,10.0,-999,-99.99,,,-99.99,,2013-07-13 19:02:00,
2013-07-13 12:32:00,62.0,-99.9,30.22,NNE,31,9.0,11.0,-999,-99.99,,,-99.99,,2013-07-13 19:32:00,
2013-07-13 12:44:00,63.0,-99.9,30.22,NNE,32,7.0,10.0,-999,-99.99,,,-99.99,,2013-07-13 19:44:00,
2013-07-13 12:52:00,64.0,-99.9,30.22,WNW,287,3.0,8.0,-999,-99.99,,,-99.99,,2013-07-13 19:52:00,
2013-07-13 13:02:00,65.0,-99.9,30.22,NW,318,3.0,6.0,-999,-99.99,,,-99.99,,2013-07-13 20:02:00,
2013-07-13 13:11:00,65.0,-99.9,30.22,NE,55,5.0,6.0,-999,-99.99,,,-99.99,,2013-07-13 20:11:00,
2013-07-13 13:33:00,65.0,-99.9,30.22,NW,316,4.0,6.0,-999,-99.99,,,-99.99,,2013-07-13 20:33:00,
2013-07-13 13:43:00,66.0,-99.9,30.22,NNW,334,4.0,9.0,-999,-99.99,,,-99.99,,2013-07-13 20:43:00,
2013-07-13 13:53:00,65.0,-99.9,30.21,NW,313,6.0,9.0,-999,-99.99,,,-99.99,,2013-07-13 20:53:00,
2013-07-13 14:02:00,65.0,-99.9,30.21,NNW,335,7.0,9.0,-999,-99.99,,,-99.99,,2013-07-13 21:02:00,
2013-07-13 14:12:00,65.0,-99.9,30.21,NW,321,8.0,11.0,-999,-99.99,,,-99.99,,2013-07-13 21:12:00,
2013-07-13 14:32:00,66.0,-99.9,30.20,NNW,331,6.0,10.0,-999,-99.99,,,-99.99,,2013-07-13 21:32:00,
2013-07-13 14:43:00,68.0,-99.9,30.20,NNW,340,6.0,11.0,-999,-99.99,,,-99.99,,2013-07-13 21:43:00,
2013-07-13 14:53:00,67.0,-99.9,30.20,NNW,332,8.0,11.0,-999,-99.99,,,-99.99,,2013-07-13 21:53:00,
2013-07-13 15:01:00,67.0,-99.9,30.20,NW,324,6.0,11.0,-999,-99.99,,,-99.99,,2013-07-13 22:01:00,
2013-07-13 15:32:00,66.0,-99.9,30.19,NNW,336,11.0,14.0,-999,-99.99,,,-99.99,,2013-07-13 22:32:00,
2013-07-13 15:43:00,67.0,-99.9,30.19,NW,320,8.0,12.0,-999,-99.99,,,-99.99,,2013-07-13 22:43:00,
2013-07-13 15:53:00,67.0,-99.9,30.19,NW,312,8.0,12.0,-999,-99.99,,,-99.99,,2013-07-13 22:53:00,
2013-07-13 16:02:00,68.0,-99.9,30.19,NW,321,6.0,11.0,-999,-99.99,,,-99.99,,2013-07-13 23:02:00,
2013-07-13 16:11:00,68.0,-99.9,30.18,NW,312,8.0,11.0,-999,-99.99,,,-99.99,,2013-07-13 23:11:00,
2013-07-13 16:33:00,69.0,-99.9,30.18,NW,315,6.0,9.0,-999,-99.99,,,-99.99,,2013-07-13 23:33:00,
2013-07-13 16:42:00,69.0,-99.9,30.18,NW,313,6.0,10.0,-999,-99.99,,,-99.99,,2013-07-13 23:42:00,
2013-07-13 16:53:00,69.0,-99.9,30.17,NNW,334,8.0,10.0,-999,-99.99,,,-99.99,,2013-07-13 23:53:00,
2013-07-13 17:01:00,70.0,-99.9,30.17,WNW,302,6.0,9.0,-999,-99.99,,,-99.99,,2013-07-14 00:01:00,
2013-07-13 17:22:00,70.0,-99.9,30.17,NNW,333,6.0,10.0,-999,-99.99,,,-99.99,,2013-07-14 00:22:00,
2013-07-13 17:33:00,69.0,-99.9,30.16,WNW,292,8.0,10.0,-999,-99.99,,,-99.99,,2013-07-14 00:33:00,
2013-07-13 17:42:00,69.0,-99.9,30.16,NNW,329,5.0,10.0,-999,-99.99,,,-99.99,,2013-07-14 00:42:00,
2013-07-13 18:02:00,70.0,-99.9,30.16,WNW,299,5.0,9.0,-999,-99.99,,,-99.99,,2013-07-14 01:02:00,
2013-07-13 18:11:00,70.0,-99.9,30.16,NW,312,6.0,10.0,-999,-99.99,,,-99.99,,2013-07-14 01:11:00,
2013-07-13 18:43:00,69.0,-99.9,30.15,WNW,283,5.0,9.0,-999,-99.99,,,-99.99,,2013-07-14 01:43:00,
2013-07-13 18:52:00,68.0,-99.9,30.16,WNW,294,6.0,10.0,-999,-99.99,,,-99.99,,2013-07-14 01:52:00,
2013-07-13 19:02:00,66.0,-99.9,30.16,WNW,283,7.0,12.0,-999,-99.99,,,-99.99,,2013-07-14 02:02:00,
2013-07-13 19:11:00,64.0,-99.9,30.16,West,277,12.0,15.0,-999,-99.99,,,-99.99,,2013-07-14 02:11:00,
2013-07-13 19:32:00,64.0,-99.9,30.16,WNW,289,9.0,15.0,-999,-99.99,,,-99.99,,2013-07-14 02:32:00,
2013-07-13 19:43:00,62.0,-99.9,30.16,WNW,294,13.0,17.0,-999,-99.99,,,-99.99,,2013-07-14 02:43:00,
2013-07-13 19:53:00,62.0,-99.9,30.16,WNW,287,12.0,18.0,-999,-99.99,,,-99.99,,2013-07-14 02:53:00,
2013-07-13 20:02:00,62.0,-99.9,30.16,WNW,284,9.0,16.0,-999,-99.99,,,-99.99,,2013-07-14 03:02:00,
2013-07-13 20:11:00,62.0,-99.9,30.16,West,277,11.0,16.0,-999,-99.99,,,-99.99,,2013-07-14 03:11:00,
2013-07-13 20:32:00,61.0,-99.9,30.16,West,266,8.0,16.0,-999,-99.99,,,-99.99,,2013-07-14 03:32:00,
2013-07-13 20:43:00,60.0,-99.9,30.15,West,265,12.0,17.0,-999,-99.99,,,-99.99,,2013-07-14 03:43:00,
2013-07-13 20:53:00,60.0,-99.9,30.15,West,269,11.0,16.0,-999,-99.99,,,-99.99,,2013-07-14 03:53:00,
2013-07-13 21:02:00,60.0,-99.9,30.15,West,267,13.0,20.0,-999,-99.99,,,-99.99,,2013-07-14 04:02:00,
2013-07-13 21:11:00,59.0,-99.9,30.15,West,275,11.0,16.0,-999,-99.99,,,-99.99,,2013-07-14 04:11:00,
2013-07-13 21:32:00,59.0,-99.9,30.16,West,281,9.0,17.0,-999,-99.99,,,-99.99,,2013-07-14 04:32:00,
2013-07-13 21:42:00,60.0,-99.9,30.15,West,264,11.0,17.0,-999,-99.99,,,-99.99,,2013-07-14 04:42:00,
2013-07-13 21:54:00,59.0,-99.9,30.15,West,271,10.0,15.0,-999,-99.99,,,-99.99,,2013-07-14 04:54:00,
2013-07-13 22:02:00,59.0,-99.9,30.15,West,269,10.0,18.0,-999,-99.99,,,-99.99,,2013-07-14 05:02:00,
2013-07-13 22:32:00,59.0,-99.9,30.16,West,270,14.0,21.0,-999,-99.99,,,-99.99,,2013-07-14 05:32:00,
2013-07-13 22:43:00,59.0,-99.9,30.15,West,272,10.0,16.0,-999,-99.99,,,-99.99,,2013-07-14 05:43:00,
2013-07-13 22:53:00,59.0,-99.9,30.15,West,272,11.0,20.0,-999,-99.99,,,-99.99,,2013-07-14 05:53:00,
2013-07-13 23:01:00,59.0,-99.9,30.15,West,273,12.0,17.0,-999,-99.99,,,-99.99,,2013-07-14 06:01:00,
2013-07-13 23:12:00,60.0,-99.9,30.15,West,274,9.0,17.0,-999,-99.99,,,-99.99,,2013-07-14 06:12:00,
2013-07-13 23:32:00,59.0,-99.9,30.15,West,270,11.0,17.0,-999,-99.99,,,-99.99,,2013-07-14 06:32:00,
2013-07-13 23:42:00,59.0,-99.9,30.15,West,272,9.0,14.0,-999,-99.99,,,-99.99,,2013-07-14 06:42:00,
2013-07-13 23:53:00,58.0,-99.9,30.15,West,277,8.0,14.0,-999,-99.99,,,-99.99,,2013-07-14 06:53:00,